Location: Unspecified
(34.4950°S, 58.5160°W)
Time: 15:45:25
(UTC+00:00)

Cosmos 1655 Rocket - Pass Details

Date: 02 July 2022
Orbit: 971 x 1005 km, 83.0° (Epoch: 11 August)

Event Time Altitude Azimuth Distance (km) Brightness Sun altitude
Rises 21:55:57 0° 37° (NE) 3,715 6.9 -12.3°
Reaches altitude 10° 21:59:12 10° 53° (NE) 2,778 6.1 -13.0°
Maximum altitude 22:03:33 20° 96° (E) 2,174 5.2 -13.8°
Enters shadow 22:04:27 19° 107° (ESE) 2,206 5.2 -14.0°
